• en Belgique
  • Liste des pays
  • À 7 jours
  • Température de l'eau
  • Carte satellitaire
  • Carte météo
  • Widgets météo
  • user-avatar
    Se connecter

    Météo par heure à Beveren

    Ce jour, 23 Juillet, Lundi

    Heure Température Précipitation Vent Pression Humidité
    00:00 +17°C° 0 mm 0 m/s 762 mmHg 83%
    01:00 +18°C° 0 mm 1 m/s 762 mmHg 84%
    02:00 +18°C° 0 mm 1 m/s 762 mmHg 85%
    03:00 +18°C° 0 mm 1 m/s 762 mmHg 85%
    04:00 +18°C° 0 mm 2 m/s 762 mmHg 81%
    05:00 +19°C° 0 mm 2 m/s 762 mmHg 77%
    06:00 +20°C° 0 mm 2 m/s 762 mmHg 72%
    07:00 +23°C° 0 mm 2 m/s 762 mmHg 65%
    08:00 +25°C° 0 mm 2 m/s 762 mmHg 58%
    09:00 +27°C° 0 mm 3 m/s 763 mmHg 51%
    10:00 +28°C° 0 mm 3 m/s 762 mmHg 48%
    11:00 +29°C° 0 mm 3 m/s 762 mmHg 45%
    12:00 +30°C° 0 mm 3 m/s 762 mmHg 42%
    13:00 +30°C° 0 mm 3 m/s 762 mmHg 42%
    14:00 +31°C° 0 mm 3 m/s 762 mmHg 42%
    15:00 +31°C° 0 mm 3 m/s 761 mmHg 42%
    16:00 +30°C° 0 mm 2 m/s 761 mmHg 45%
    17:00 +30°C° 0 mm 2 m/s 761 mmHg 48%
    18:00 +29°C° 0 mm 2 m/s 761 mmHg 50%
    19:00 +27°C° 0 mm 2 m/s 761 mmHg 57%
    20:00 +25°C° 0 mm 2 m/s 762 mmHg 64%
    21:00 +23°C° 0 mm 2 m/s 762 mmHg 71%
    22:00 +22°C° 0 mm 1 m/s 762 mmHg 74%
    23:00 +21°C° 0 mm 1 m/s 762 mmHg 77%

    Demain, 24 Juillet, Mardi

    Heure Température Précipitation Vent Pression Humidité
    00:00 +20°C° 0 mm 1 m/s 761 mmHg 80%
    01:00 +20°C° 0 mm 1 m/s 761 mmHg 81%
    02:00 +20°C° 0 mm 1 m/s 761 mmHg 82%
    03:00 +19°C° 0 mm 1 m/s 761 mmHg 83%
    04:00 +20°C° 0 mm 1 m/s 761 mmHg 78%
    05:00 +22°C° 0 mm 1 m/s 761 mmHg 74%
    06:00 +23°C° 0 mm 1 m/s 761 mmHg 69%
    07:00 +25°C° 0 mm 1 m/s 761 mmHg 63%
    08:00 +27°C° 0 mm 1 m/s 761 mmHg 56%
    09:00 +29°C° 0 mm 1 m/s 761 mmHg 50%
    10:00 +30°C° 0 mm 1 m/s 760 mmHg 47%
    11:00 +31°C° 0 mm 1 m/s 760 mmHg 44%
    12:00 +32°C° 0 mm 1 m/s 760 mmHg 42%
    13:00 +32°C° 0 mm 1 m/s 759 mmHg 42%
    14:00 +31°C° 0 mm 2 m/s 759 mmHg 42%
    15:00 +31°C° 0 mm 2 m/s 759 mmHg 43%
    16:00 +30°C° 0 mm 2 m/s 759 mmHg 45%
    17:00 +30°C° 0 mm 3 m/s 759 mmHg 47%
    18:00 +29°C° 0 mm 3 m/s 759 mmHg 49%
    19:00 +27°C° 0,1 mm 3 m/s 759 mmHg 54%
    20:00 +25°C° 0,1 mm 3 m/s 760 mmHg 59%
    21:00 +23°C° 0,1 mm 2 m/s 760 mmHg 64%
    22:00 +21°C° 0,2 mm 2 m/s 760 mmHg 66%
    23:00 +21°C° 0,2 mm 2 m/s 760 mmHg 68%

    Après-demain, 25 Juillet, Mercredi

    Heure Température Précipitation Vent Pression Humidité
    00:00 +21°C° 0,2 mm 1 m/s 760 mmHg 70%
    01:00 +21°C° 0 mm 1 m/s 760 mmHg 72%
    02:00 +20°C° 0 mm 1 m/s 760 mmHg 74%
    03:00 +20°C° 0 mm 1 m/s 760 mmHg 76%
    04:00 +21°C° 0 mm 1 m/s 760 mmHg 73%
    05:00 +22°C° 0 mm 1 m/s 760 mmHg 70%
    06:00 +23°C° 0 mm 1 m/s 760 mmHg 67%
    07:00 +25°C° 0 mm 1 m/s 760 mmHg 61%
    08:00 +27°C° 0 mm 2 m/s 760 mmHg 56%
    09:00 +29°C° 0 mm 2 m/s 760 mmHg 50%
    10:00 +30°C° 0 mm 2 m/s 760 mmHg 47%
    11:00 +31°C° 0 mm 2 m/s 760 mmHg 44%
    12:00 +32°C° 0 mm 2 m/s 760 mmHg 41%
    13:00 +32°C° 0 mm 2 m/s 760 mmHg 41%
    14:00 +33°C° 0 mm 3 m/s 760 mmHg 42%
    15:00 +33°C° 0 mm 3 m/s 760 mmHg 42%
    16:00 +31°C° 0 mm 3 m/s 760 mmHg 44%
    17:00 +30°C° 0 mm 3 m/s 760 mmHg 46%
    18:00 +30°C° 0 mm 3 m/s 760 mmHg 48%
    19:00 +28°C° 0 mm 3 m/s 760 mmHg 53%
    20:00 +26°C° 0 mm 3 m/s 761 mmHg 59%
    21:00 +24°C° 0 mm 3 m/s 761 mmHg 64%
    22:00 +22°C° 0 mm 3 m/s 761 mmHg 67%
    23:00 +23°C° 0 mm 2 m/s 761 mmHg 70%

    26 Juillet, Jeudi

    Heure Température Précipitation Vent Pression Humidité
    00:00 +21°C° 0 mm 2 m/s 761 mmHg 73%
    01:00 +21°C° 0 mm 2 m/s 761 mmHg 75%
    02:00 +21°C° 0 mm 2 m/s 761 mmHg 78%
    03:00 +20°C° 0 mm 2 m/s 761 mmHg 81%
    04:00 +21°C° 0 mm 2 m/s 761 mmHg 78%
    05:00 +23°C° 0 mm 1 m/s 761 mmHg 75%
    06:00 +24°C° 0 mm 1 m/s 761 mmHg 72%
    07:00 +26°C° 0 mm 1 m/s 761 mmHg 64%
    08:00 +29°C° 0 mm 1 m/s 761 mmHg 56%
    09:00 +31°C° 0 mm 1 m/s 760 mmHg 48%
    10:00 +32°C° 0 mm 2 m/s 760 mmHg 44%
    11:00 +34°C° 0 mm 2 m/s 760 mmHg 39%
    12:00 +36°C° 0 mm 2 m/s 760 mmHg 35%
    13:00 +36°C° 0 mm 2 m/s 760 mmHg 35%
    14:00 +35°C° 0 mm 2 m/s 760 mmHg 36%
    15:00 +35°C° 0 mm 2 m/s 759 mmHg 36%
    16:00 +35°C° 0,1 mm 2 m/s 759 mmHg 39%
    17:00 +34°C° 0,1 mm 2 m/s 759 mmHg 41%
    18:00 +32°C° 0,1 mm 2 m/s 759 mmHg 43%
    19:00 +30°C° 0,1 mm 2 m/s 759 mmHg 49%
    20:00 +28°C° 0,1 mm 2 m/s 759 mmHg 54%
    21:00 +27°C° 0,1 mm 1 m/s 760 mmHg 59%
    22:00 +26°C° 0,4 mm 1 m/s 760 mmHg 62%
    23:00 +25°C° 0,4 mm 1 m/s 760 mmHg 66%

    27 Juillet, Vendredi

    Heure Température Précipitation Vent Pression Humidité
    00:00 +22°C° 0,4 mm 0 m/s 759 mmHg 69%
    01:00 +24°C° 0,4 mm 1 m/s 759 mmHg 71%
    02:00 +23°C° 0,4 mm 1 m/s 759 mmHg 74%
    03:00 +23°C° 0,4 mm 1 m/s 759 mmHg 76%
    04:00 +24°C° 0,2 mm 1 m/s 759 mmHg 75%
    05:00 +25°C° 0,2 mm 1 m/s 759 mmHg 74%
    06:00 +25°C° 0,2 mm 1 m/s 759 mmHg 73%
    07:00 +27°C° 0,1 mm 1 m/s 759 mmHg 65%
    08:00 +29°C° 0,1 mm 1 m/s 759 mmHg 57%
    09:00 +31°C° 0,1 mm 1 m/s 759 mmHg 50%
    10:00 +32°C° 0,2 mm 2 m/s 759 mmHg 46%
    11:00 +34°C° 0,2 mm 2 m/s 759 mmHg 42%
    12:00 +35°C° 0,2 mm 2 m/s 758 mmHg 38%
    13:00 +35°C° 0,5 mm 2 m/s 758 mmHg 41%
    14:00 +34°C° 0,5 mm 2 m/s 758 mmHg 44%
    15:00 +32°C° 0,5 mm 2 m/s 758 mmHg 47%
    16:00 +32°C° 1 mm 2 m/s 758 mmHg 50%
    17:00 +31°C° 1 mm 2 m/s 758 mmHg 54%
    18:00 +30°C° 1 mm 2 m/s 758 mmHg 57%
    19:00 +28°C° 1,4 mm 2 m/s 758 mmHg 66%
    20:00 +26°C° 1,4 mm 2 m/s 758 mmHg 74%
    21:00 +24°C° 1,4 mm 2 m/s 759 mmHg 83%
    22:00 +23°C° 0,2 mm 2 m/s 759 mmHg 85%
    23:00 +22°C° 0,2 mm 3 m/s 759 mmHg 86%

    28 Juillet, Samedi

    Heure Température Précipitation Vent Pression Humidité
    00:00 +21°C° 0,2 mm 3 m/s 759 mmHg 88%
    01:00 +20°C° 0,1 mm 3 m/s 759 mmHg 88%
    02:00 +20°C° 0,1 mm 3 m/s 759 mmHg 88%
    03:00 +19°C° 0,1 mm 3 m/s 759 mmHg 88%
    04:00 +19°C° 0 mm 3 m/s 759 mmHg 87%
    05:00 +20°C° 0 mm 4 m/s 760 mmHg 85%
    06:00 +20°C° 0 mm 4 m/s 760 mmHg 84%
    07:00 +22°C° 0 mm 4 m/s 760 mmHg 77%
    08:00 +23°C° 0 mm 4 m/s 760 mmHg 70%
    09:00 +25°C° 0 mm 4 m/s 761 mmHg 64%
    10:00 +26°C° 0 mm 5 m/s 761 mmHg 59%
    11:00 +27°C° 0 mm 5 m/s 761 mmHg 54%
    12:00 +28°C° 0 mm 5 m/s 761 mmHg 50%
    13:00 +27°C° 0 mm 5 m/s 761 mmHg 50%
    14:00 +27°C° 0 mm 5 m/s 762 mmHg 50%
    15:00 +27°C° 0 mm 5 m/s 762 mmHg 51%
    16:00 +26°C° 0 mm 4 m/s 762 mmHg 53%
    17:00 +25°C° 0 mm 4 m/s 762 mmHg 56%
    18:00 +24°C° 0 mm 3 m/s 762 mmHg 58%
    19:00 +21°C° 0 mm 3 m/s 763 mmHg 62%
    20:00 +20°C° 0 mm 2 m/s 763 mmHg 66%
    21:00 +19°C° 0 mm 2 m/s 764 mmHg 69%
    22:00 +18°C° 0 mm 2 m/s 764 mmHg 73%
    23:00 +17°C° 0 mm 2 m/s 764 mmHg 77%
    Voir plus